CZ-6A DEB, 61297

Orbit data source: Space-Track

CZ-6A DEB, 61297 is space debris in LEO originally from a launch on Tue, 06 Aug 2024 UTC launched from the Taiyaun Space Center, China (TSC). Debris objects in space refer to the collection of defunct objects orbiting the Earth. Examples of debris include non-operational satellites, rocket bodies, and fragments generated from explosions, collisions, or faulty payload assembly.

Loading next visibility...
Identifier
61297, 2024-140TJ
Orbit
LEO
Country
Flag of CNCN / PRC
Related business
Manufacturer
SAST
Mission
Spacecraft
Bus & Motor
Unknown
Mass
Unknown
Launch date (UTC)
2024-08-06 (2 years ago)
Launch vehicle
Unknown
Launch site
Taiyaun Space Center, China (TSC)
Object type
Payload
Rocket body
Debris
Shape & HBR
Unknown shape, 0.1 m
Radar Cross Section
Medium (>0.1 m² and <1 m²)

Expand to show TLE details & history
Last TLE update: 14 hours ago

TLE from 14 hours ago
0 CZ-6A DEB
1 61297U 24140TJ  26171.28817292  .00003038  00000-0  13458-2 0  9999
2 61297  89.0430 277.9720 0062577 168.5657 191.6973 14.21858270 93758
Epoch: 2026-06-20T06:54Z
TLE epoch observation values (Epoch: 2026-06-20T06:54:58.140Z)
Latitude
-0.00004°
Longitude
-94.2752°
Altitude
866.255 km
Speed
7.396 km/s
True Right ascension
18h 31m 53s
True Declination
0° 00' 00"
Sunlit
Object was in full shadow at epoch
Visualization orbit readout
Latitude
Unknown
Longitude
Unknown
Altitude
Unknown
Speed
Unknown
Apparent Right ascension
Unknown
Apparent Declination
Unknown
Sunlit
N/A
Visualization observer readout
Local Sidereal Time
07:21:55
Azimuth
Unknown
Elevation
Unknown
Doppler factor
Unknown
Orbital elements
Apogee altitude
861.042 km
Perigee altitude
771.004 km
Semi-major axis
7,194.16 km
Eccentricity
0.00626
Inclination
89.043°
RAAN
277.972°
Arg. of periapsis
168.5657°
True anomaly
191.55302°
Mean anomaly
191.6973°
Eccentric anomaly
191.62505°
Mean motion
3.55691 °/min
Orbital period
101.21 mins
BSTAR
0.0013458
Loading maneuver chart data...
Computing Atmospheric mass density...
Loading historical data...
Loading historical data...
Loading historical data...
Loading historical data...
Loading historical data...
Loading historical data...
Loading historical data...

Documentation

Showing up to 5 results
|